San Jose, CA

10:42 PM PDT on June 19, 2018 (GMT -0700)
San Jose International

Weather History for KSJC - June, 2018

Change the Weather History Date:

Wednesday, June 13, 2018

  Actual Average Record
Temperature  
Mean Temperature 71 °F 67 °F  
Max Temperature 85 °F 79 °F 100 °F (2000)
Min Temperature 56 °F 56 °F 36 °F (1893)
Degree Days  
Heating Degree Days 0 1  
Month to date heating degree days 9 15  
Since 1 June heating degree days 9 15  
Since 1 July heating degree days 1737 2249  
Cooling Degree Days 6 3  
Month to date cooling degree days 39 33  
Year to date cooling degree days 72 96  
Since 1 June cooling degree days 39 33  
Growing Degree Days 20 (Base 50)    
Moisture  
Dew Point 53 °F    
Average Humidity 56    
Maximum Humidity 80    
Minimum Humidity 32    
Precipitation  
Precipitation 0.00 in 0.00 in 0.11 in (1907)
Month to date precipitation 0.00 0.07  
Year to date precipitation 7.54 10.48  
Sea Level Pressure  
Sea Level Pressure 29.81 in    
Wind  
Wind Speed 7 mph (NW)    
Max Wind Speed 18 mph    
Max Gust Speed 22 mph    
Visibility 9 miles    
Events      
T = Trace of Precipitation, MM = Missing Value Source: NWS Daily Summary

Daily Weather History Graph

Daily Weather History Graph

Search for Another Location

Airport or City:

Astronomy

Jun. 13, 2018 Rise Set
Actual Time 5:46 AM PDT 8:29 PM PDT
Civil Twilight 5:15 AM PDT 9:00 PM PDT
Nautical Twilight 4:36 AM PDT 9:39 PM PDT
Astronomical Twilight 3:53 AM PDT 10:22 PM PDT
Moon 5:51 AM PDT (6/13) 8:32 PM PDT (6/13)
Length of Visible Light 15h 44m
Length of Day
14h 42m
Waning Crescent, 0% of the Moon is Illuminated
Jun 13
Waning Crescent
Jun 13
New
Jun 20
First Quarter
Jun 27
Full
Jul 6
Last Quarter

Hourly Weather History & Observations

Time (PDT) Temp. Heat Index Dew Point Humidity Pressure Visibility Wind Dir Wind Speed Gust Speed Precip Events Conditions
12:53 AM 61.0 °F - 53.1 °F 75% 29.83 in 9.0 mi NW 8.1 mph - N/A   Clear
1:53 AM 59.0 °F - 52.0 °F 78% 29.82 in 10.0 mi NW 5.8 mph - N/A   Clear
2:53 AM 59.0 °F - 52.0 °F 78% 29.81 in 10.0 mi NNW 4.6 mph - N/A   Clear
3:53 AM 59.0 °F - 52.0 °F 78% 29.80 in 10.0 mi NW 3.5 mph - N/A   Clear
4:53 AM 57.0 °F - 51.1 °F 81% 29.80 in 10.0 mi WNW 3.5 mph - N/A   Clear
5:53 AM 57.0 °F - 51.1 °F 81% 29.80 in 6.0 mi WNW 3.5 mph - N/A   Haze
6:53 AM 60.1 °F - 52.0 °F 75% 29.81 in 6.0 mi NNW 3.5 mph - N/A   Haze
7:53 AM 62.1 °F - 53.1 °F 72% 29.82 in 6.0 mi Calm Calm - N/A   Haze
8:53 AM 66.0 °F - 53.1 °F 63% 29.83 in 6.0 mi Calm Calm - N/A   Haze
9:53 AM 70.0 °F - 53.1 °F 55% 29.82 in 7.0 mi Calm Calm - N/A   Clear
10:53 AM 75.0 °F - 52.0 °F 44% 29.82 in 9.0 mi Variable 3.5 mph - N/A   Clear
11:53 AM 79.0 °F - 51.1 °F 38% 29.81 in 10.0 mi Variable 3.5 mph - N/A   Clear
12:53 PM 82.9 °F - 50.0 °F 32% 29.81 in 10.0 mi Variable 6.9 mph - N/A   Clear
1:53 PM 84.2 °F - 51.8 °F 33% 29.80 in 10.0 mi NW 11.5 mph - N/A   Partly Cloudy
2:53 PM 84.0 °F 82.5 °F 53.1 °F 34% 29.79 in 10.0 mi WNW 15.0 mph - N/A   Clear
3:53 PM 82.9 °F 81.9 °F 54.0 °F 37% 29.79 in 10.0 mi WNW 15.0 mph - N/A   Clear
4:53 PM 80.1 °F 80.1 °F 55.0 °F 42% 29.78 in 10.0 mi NW 17.3 mph - N/A   Clear
5:53 PM 75.0 °F - 55.9 °F 51% 29.78 in 10.0 mi NW 15.0 mph - N/A   Clear
6:53 PM 73.0 °F - 55.9 °F 55% 29.79 in 10.0 mi NNW 9.2 mph - N/A   Partly Cloudy
7:53 PM 70.0 °F - 55.0 °F 59% 29.80 in 10.0 mi NW 10.4 mph - N/A   Partly Cloudy
8:53 PM 66.9 °F - 54.0 °F 63% 29.81 in 10.0 mi NNW 8.1 mph - N/A   Partly Cloudy
9:53 PM 64.0 °F - 54.0 °F 70% 29.83 in 10.0 mi NNW 9.2 mph - N/A   Clear
10:53 PM 62.1 °F - 52.0 °F 70% 29.84 in 10.0 mi NNW 8.1 mph - N/A   Clear
11:53 PM 60.1 °F - 52.0 °F 75% 29.84 in 10.0 mi NNW 4.6 mph - N/A   Clear